Regional Weather Roundup
Issued by NWS Jackson, KY

Home | Current Version | Previous Version | Text Only | Print | Product List | Glossary Off
Versions: 1 2 3 4 5 6 7 8 9 10 11 12 13 14 15 16 17 18 19 20 21 22 23 24 25 26 27 28 29 30 31 32 33 34 35 36 37 38 39 40 41 42 43 44 45 46 47 48 49 50

045
ASUS43 KJKL 170810
RWRJKL

EAST KENTUCKY HOURLY WEATHER ROUNDUP
NATIONAL WEATHER SERVICE JACKSON KY
300 AM EST SUN DEC 17 2017

NOTE: "FAIR" INDICATES FEW OR NO CLOUDS BELOW 12,000 FEET WITH
NO SIGNIFICANT WEATHER AND/OR OBSTRUCTIONS TO VISIBILITY.

* THESE REPORTS ARE NOT UNDER NWS QUALITY CONTROL AND MAY NOT
  REPORT WEATHER SUCH AS PRECIPITATION AND FOG.

KYZ079-080-083-085-087-088-110-112-115-119-120-170900
...EASTERN KENTUCKY...

CITY           SKY/WX    TMP DP  RH WIND       PRES   REMARKS
JACKSON        CLOUDY    38  27  64 SW3       30.23R
LONDON         CLOUDY    31  26  82 CALM      30.23R
SOMERSET*      PTCLDY    36  28  75 S5        30.25F WCI  32
MONTICELLO*    CLOUDY    31  28  89 CALM      30.24F
WILLIAMSBURG*  CLOUDY    30  28  93 E3        30.23F
MIDDLESBORO*   MOCLDY    29  27  92 CALM      30.28R
HARLAN APT*    MOSUNNY   30  28  93 CALM      30.26R
PIKE CO APT*     N/A     36  26  65 CALM      30.23S
BIG SANDY APT* MOSUNNY   39  26  60 SW5       30.24S
MOREHEAD APT*  CLOUDY    37  27  65 SE3       30.22F
$$

KYZ035-036-041-042-044-050-067-078-099-170900
...CENTRAL KENTUCKY...

CITY           SKY/WX    TMP DP  RH WIND       PRES   REMARKS
MT STERLING*   PTCLDY    37  30  75 SW6       30.23S WCI  33
FLEMING/MASON* PTCLDY    35  28  76 S7        30.21S WCI  29
DANVILLE*      CLOUDY    37  30  75 S5        30.22F WCI  34
LEXINGTON      PTCLDY    38  29  70 S8        30.20S WCI  32
FRANKFORT      CLOUDY    38  28  67 S8        30.18F WCI  32
LOUISVILLE     CLOUDY    40  30  67 S6        30.19R
LEBANON*         N/A     41  28  60 S9        30.21R
GLASGOW*       CLOUDY    40  30  65 CALM      30.21S
BOWLING GREEN  MOCLDY    42  31  64 S3        30.21F
$$

KYZ091>093-OHZ055-061-077-WVZ005-015-034-035-042-170900
...SOUTHERN OHIO/WEST VIRGINIA...

CITY           SKY/WX    TMP DP  RH WIND       PRES   REMARKS
COVINGTON      CLOUDY    38  30  73 S9        30.16S WCI  31
COLUMBUS       CLOUDY    35  28  75 S5        30.17S WCI  31
DAYTON         CLOUDY    37  29  72 S10       30.13F WCI  30
WILMINGTON     CLEAR     32  28  85 S9        30.16S WCI  24
HUNTINGTON     PTCLDY    37  25  61 S6        30.22S WCI  32
CHARLESTON     PTCLDY    30  24  78 CALM      30.24S
PINEVILLE*       N/A     25  23  91 MISG      30.30S
BECKLEY        CLOUDY    31  22  69 CALM      30.22R
BLUEFIELD      CLOUDY    31  21  66 W8        30.22S WCI  23
LOGAN CO APT*    N/A     37  25  60 CALM      30.22F
$$

VAZ002-007-008-TNZ017-027-036-066-071-170900
...SOUTHWEST VIRGINIA/EAST TENNESSEE...

CITY           SKY/WX    TMP DP  RH WIND       PRES   REMARKS
WISE*          PTCLDY    34  28  80 CALM      30.24R
JONESVILLE*      N/A     28  27  93 CALM      30.30R
ABINGDON*      CLOUDY    32  27  83 CALM      30.25R
BRISTOL        CLOUDY    27  25  92 CALM      30.27S
MORRISTOWN*    SUNNY     30  27  86 CALM      30.26F
SEVIERVILLE*   SUNNY     27  25  93 CALM      30.28S
KNOXVILLE      PTCLDY    28  28 100 E6        30.24F WCI  22
LAFOLLETTE*    SUNNY     28  28 100 CALM      30.29F
OAK RIDGE      PTCLDY    30  28  92 CALM      30.25F
CROSSVILLE     CLOUDY    33  25  72 CALM      30.21F
NASHVILLE      CLOUDY    41  30  65 SE6       30.20S
$$

...KEY TO REMARKS...
VSB - VISIBILITY IN MILES
WCI - WIND CHILL INDEX
HX  - HEAT INDEX

$$




USA.gov is the U.S. government's official web portal to all federal, state and local government web resources and services.